Tracking 17150 objects as of 5-August-2015
HD Live streaming from Space Station

CRRES DEB (CANISTER)

Track CRRES DEB (CANISTER) now!
CRRES DEB (CANISTER) is classified as:


NORAD ID: 27051
Int'l Code: 1990-065U
Perigee: 328.2 km
Apogee: 30,336.4 km
Inclination: 18.0 °
Period: 530.3 minutes
Semi major axis: 21703 km
RCS: 0.1304 m2 (medium)
Launch date: July 25, 1990
Source: United States (US)

Note: This is SATELLITE DEBRIS
Your satellite tracking list
Your tracking list is empty





NASA's NSSDC Master Catalog

Two Line Element Set (TLE):
1 27051U 90065U   15216.16585101  .00001375  00000-0  11364-2 0  9990
2 27051 017.9632 198.2785 6913294 329.0829 004.1035 02.71527668150746

Source of the keplerian elements: AFSPC

N2YO: 408